Export;EXP-2023-01 (20230707 09:26);;;StationsCode;NL01483;NL01487;NL01488;NL01492;NL01494;NL01496;NL49014
Periode;20110101 00:00 - 20120101 00:00;;;BeheerderMeetStation;DCMR;DCMR;DCMR;DCMR;DCMR;DCMR;GGD A'dam
Bron;https://data.rivm.nl/data/luchtmeetnet;;;StationsNaam;Botlek-Spoortunnel;Rotterdam Zuid-Pleinweg;Rotterdam Zuid-Zwartewaalstraat;Rotterdam-Vasteland;Schiedam-Alphons Arienstraat;Hoek v. Holland-Berghaven;Amsterdam-Vondelpark
Beschrijving data;https://data.rivm.nl/data/luchtmeetnet/readme.pdf;;;Latitude,Longitude;(51.870069,4.318061);(51.891147,4.48069);(51.893617,4.487528);(51.914264,4.479992);(51.921389,4.401389);(51.977803,4.121944);(52.359714,4.866208)
Accreditatienummer;https://www.rva.nl/alle-geaccrediteerden/;;;StationsGebied;stad;stad;stad;stad;stad;voorstad;stad
;;;;StationsType;industrie;verkeer;achtergrond;verkeer;achtergrond;industrie;achtergrond
;;;;Meetprincipe;Multi-hoek absorptie fotometrie (MAAP);Multi-hoek absorptie fotometrie (MAAP);Multi-hoek absorptie fotometrie (MAAP);Multi-hoek absorptie fotometrie (MAAP);Multi-hoek absorptie fotometrie (MAAP);Multi-hoek absorptie fotometrie (MAAP);Multi-hoek absorptie fotometrie (MAAP)
;;;;Meetopstelling;Thermo Scientific 5012 MAAP  ;Thermo Scientific 5012 MAAP  ;Thermo Scientific 5012 MAAP  ;Thermo Scientific 5012 MAAP  ;Thermo Scientific 5012 MAAP  ;Thermo Scientific 5012 MAAP  ;Thermo Scientific 5012 MAAP  
;;;;Accreditatienummer;L520;L520;L520;L520;L520;L520;L426
Component;Bep.periode;Eenheid; Begindatumtijd;Einddatumtijd;NL01483;NL01487;NL01488;NL01492;NL01494;NL01496;NL49014
BC;uur;�g/m�;20110101 00:00;20110101 01:00;5.309;10.465;10.314;10.917;10.985;1.308;
BC;uur;�g/m�;20110101 01:00;20110101 02:00;4.819;8.947;9.786;8.737;6.37;1.022;
BC;uur;�g/m�;20110101 02:00;20110101 03:00;2.699;6.94;6.989;4.7;2.959;1.009;
BC;uur;�g/m�;20110101 03:00;20110101 04:00;1.384;3.668;3.133;2.215;1.21;0.736;
BC;uur;�g/m�;20110101 04:00;20110101 05:00;1.11;1.962;0.894;1.218;0.655;0.371;
BC;uur;�g/m�;20110101 05:00;20110101 06:00;0.898;1.645;0.823;0.889;0.491;0.478;
BC;uur;�g/m�;20110101 06:00;20110101 07:00;1.433;1.726;0.966;1.055;0.688;0.717;
BC;uur;�g/m�;20110101 07:00;20110101 08:00;1.6;2.018;1.194;1.934;1.868;0.929;
BC;uur;�g/m�;20110101 08:00;20110101 09:00;1.796;1.906;1.431;1.332;1.039;1.097;
BC;uur;�g/m�;20110101 09:00;20110101 10:00;1.867;2.467;1.648;1.321;1.263;1.451;
BC;uur;�g/m�;20110101 10:00;20110101 11:00;3.326;2.492;1.634;1.405;1.468;1.484;
BC;uur;�g/m�;20110101 11:00;20110101 12:00;2.95;2.663;1.232;1.053;0.933;0.77;
BC;uur;�g/m�;20110101 12:00;20110101 13:00;2.506;1.368;0.795;0.654;0.477;0.22;
BC;uur;�g/m�;20110101 13:00;20110101 14:00;0.93;1.004;0.343;0.14;0.253;0.206;
BC;uur;�g/m�;20110101 14:00;20110101 15:00;1.66;1.387;0.416;0.303;0.378;0.125;
BC;uur;�g/m�;20110101 15:00;20110101 16:00;2.033;1.398;0.439;0.397;0.344;0.102;
BC;uur;�g/m�;20110101 16:00;20110101 17:00;1.385;1.517;0.609;0.364;0.448;0.055;
BC;uur;�g/m�;20110101 17:00;20110101 18:00;2.403;2.575;0.951;0.74;0.541;0.125;
BC;uur;�g/m�;20110101 18:00;20110101 19:00;3.77;3.103;0.906;0.746;0.639;0.107;
BC;uur;�g/m�;20110101 19:00;20110101 20:00;1.301;2.322;1.019;0.707;0.616;;
BC;uur;�g/m�;20110101 20:00;20110101 21:00;2.241;2.716;1.69;1.572;0.999;0.286;
BC;uur;�g/m�;20110101 21:00;20110101 22:00;3.082;2.19;1.351;1.554;1.115;0.546;
BC;uur;�g/m�;20110101 22:00;20110101 23:00;4.158;2.239;1.223;2.02;1.748;0.456;
BC;uur;�g/m�;20110101 23:00;20110102 00:00;3.358;2.59;1.508;1.85;0.956;0.094;
BC;uur;�g/m�;20110102 00:00;20110102 01:00;3.607;1.741;0.726;0.971;0.634;;
BC;uur;�g/m�;20110102 01:00;20110102 02:00;2.801;1.066;0.454;0.423;0.262;;
BC;uur;�g/m�;20110102 02:00;20110102 03:00;3.467;2.238;0.55;0.356;0.183;0.048;
BC;uur;�g/m�;20110102 03:00;20110102 04:00;3.654;0.537;0.459;0.551;0.121;;
BC;uur;�g/m�;20110102 04:00;20110102 05:00;3.234;0.941;0.659;0.495;0.129;0.019;
BC;uur;�g/m�;20110102 05:00;20110102 06:00;3.188;0.907;0.516;0.633;0.294;0.005;
BC;uur;�g/m�;20110102 06:00;20110102 07:00;3.231;0.749;0.571;0.402;0.123;0.083;
BC;uur;�g/m�;20110102 07:00;20110102 08:00;2.569;0.592;0.352;0.349;0.107;;
BC;uur;�g/m�;20110102 08:00;20110102 09:00;3.113;0.688;0.382;0.354;0.242;0.128;
BC;uur;�g/m�;20110102 09:00;20110102 10:00;3.401;0.824;0.427;0.447;0.349;;
BC;uur;�g/m�;20110102 10:00;20110102 11:00;3.586;1.221;1.026;0.805;0.527;0.022;
BC;uur;�g/m�;20110102 11:00;20110102 12:00;1.886;1.094;0.66;0.705;0.388;0.066;
BC;uur;�g/m�;20110102 12:00;20110102 13:00;2.189;1.042;0.487;0.433;0.266;0.097;
BC;uur;�g/m�;20110102 13:00;20110102 14:00;2.317;1.473;0.441;0.455;0.465;0.122;
BC;uur;�g/m�;20110102 14:00;20110102 15:00;2.441;2.078;0.647;0.657;0.455;0.211;
BC;uur;�g/m�;20110102 15:00;20110102 16:00;3.971;1.867;0.595;0.609;0.434;0.175;
BC;uur;�g/m�;20110102 16:00;20110102 17:00;5.131;3.898;1.12;1.346;0.862;0.324;
BC;uur;�g/m�;20110102 17:00;20110102 18:00;4.006;5.007;1.27;2.038;1.046;0.791;
BC;uur;�g/m�;20110102 18:00;20110102 19:00;5.74;6.162;1.507;2.906;1.46;0.091;
BC;uur;�g/m�;20110102 19:00;20110102 20:00;2.66;5.653;1.417;2.144;1.033;0.187;
BC;uur;�g/m�;20110102 20:00;20110102 21:00;3.659;2.436;0.688;1.288;0.575;0.09;
BC;uur;�g/m�;20110102 21:00;20110102 22:00;2.559;3.551;0.984;1.825;0.485;0.16;
BC;uur;�g/m�;20110102 22:00;20110102 23:00;3.713;3.617;1.16;2.049;0.738;0.178;
BC;uur;�g/m�;20110102 23:00;20110103 00:00;2.734;1.21;0.63;0.945;0.466;0.045;
BC;uur;�g/m�;20110103 00:00;20110103 01:00;3.331;2.398;0.788;0.733;0.257;0.235;
BC;uur;�g/m�;20110103 01:00;20110103 02:00;2.779;0.83;0.346;0.409;0.105;0.703;
BC;uur;�g/m�;20110103 02:00;20110103 03:00;0.704;2.139;1.088;0.928;0.551;0.161;
BC;uur;�g/m�;20110103 03:00;20110103 04:00;1.735;1.935;1.591;2.199;0.926;0.071;
BC;uur;�g/m�;20110103 04:00;20110103 05:00;1.833;2.765;1.395;0.643;0.488;0.47;
BC;uur;�g/m�;20110103 05:00;20110103 06:00;2.876;5.59;2.113;1.179;0.726;1.707;
BC;uur;�g/m�;20110103 06:00;20110103 07:00;8.342;9.378;3.677;3.815;2.11;3.465;
BC;uur;�g/m�;20110103 07:00;20110103 08:00;4.987;5.557;4.052;5.184;4.123;4.676;
BC;uur;�g/m�;20110103 08:00;20110103 09:00;5.113;8.681;4.019;2.897;4.699;0.335;
BC;uur;�g/m�;20110103 09:00;20110103 10:00;5.956;4.318;1.644;4.114;2.163;1.725;
BC;uur;�g/m�;20110103 10:00;20110103 11:00;7.639;8.795;3.533;5.211;3.728;2.464;
BC;uur;�g/m�;20110103 11:00;20110103 12:00;5.354;5.74;2.668;5.609;5.595;2.135;
BC;uur;�g/m�;20110103 12:00;20110103 13:00;5.26;5.381;1.34;4.095;3.201;0.957;
BC;uur;�g/m�;20110103 13:00;20110103 14:00;4.75;4.783;1.488;4.258;2.01;0.802;
BC;uur;�g/m�;20110103 14:00;20110103 15:00;5.374;2.843;1.565;4.756;1.221;1.695;
BC;uur;�g/m�;20110103 15:00;20110103 16:00;5.924;4.771;2.669;4.645;1.276;1.347;
BC;uur;�g/m�;20110103 16:00;20110103 17:00;7.346;4.013;2.12;4.051;1.545;1.097;
BC;uur;�g/m�;20110103 17:00;20110103 18:00;7.837;5.433;2.855;4.414;3.618;1.118;
BC;uur;�g/m�;20110103 18:00;20110103 19:00;3.815;3.037;1.468;2.549;1.614;1.304;
BC;uur;�g/m�;20110103 19:00;20110103 20:00;2.71;2.305;1.124;2.456;1.505;0.13;
BC;uur;�g/m�;20110103 20:00;20110103 21:00;2.086;1.825;1.126;3.212;1.632;1.399;
BC;uur;�g/m�;20110103 21:00;20110103 22:00;1.356;1.11;0.611;2.533;1.651;1.637;
BC;uur;�g/m�;20110103 22:00;20110103 23:00;1.756;1.405;0.891;1.636;1.167;0.918;
BC;uur;�g/m�;20110103 23:00;20110104 00:00;1.728;2.005;1.274;1.198;0.396;0.931;
BC;uur;�g/m�;20110104 00:00;20110104 01:00;2.227;1.25;0.871;1.866;1.383;1.423;
BC;uur;�g/m�;20110104 01:00;20110104 02:00;2.273;2.142;1.306;2.277;1.927;0.942;
BC;uur;�g/m�;20110104 02:00;20110104 03:00;2.364;2.027;1.85;2.86;2.462;2.131;
BC;uur;�g/m�;20110104 03:00;20110104 04:00;2.421;2.356;2.187;3.253;2.21;2.129;
BC;uur;�g/m�;20110104 04:00;20110104 05:00;3.165;2.55;2.348;2.91;1.93;1.837;
BC;uur;�g/m�;20110104 05:00;20110104 06:00;5.172;4.324;3.091;3.28;3.197;1.709;
BC;uur;�g/m�;20110104 06:00;20110104 07:00;8.445;5.189;2.674;2.974;3.153;1.544;
BC;uur;�g/m�;20110104 07:00;20110104 08:00;6.419;4.182;1.82;2.025;2.726;1.864;
BC;uur;�g/m�;20110104 08:00;20110104 09:00;4.94;2.926;1.41;2.251;2.231;1.775;
BC;uur;�g/m�;20110104 09:00;20110104 10:00;4.31;3.288;1.465;2.383;2.433;1.328;
BC;uur;�g/m�;20110104 10:00;20110104 11:00;4.794;5.246;1.922;2.219;2.764;1.502;
BC;uur;�g/m�;20110104 11:00;20110104 12:00;4.696;4.891;2.124;2.436;2.398;1.464;
BC;uur;�g/m�;20110104 12:00;20110104 13:00;4.527;2.996;1.936;2.323;2.309;1.636;
BC;uur;�g/m�;20110104 13:00;20110104 14:00;4.702;3.402;1.738;2.072;2.276;2.062;
BC;uur;�g/m�;20110104 14:00;20110104 15:00;4.322;4.316;1.853;2.296;2.309;2.405;
BC;uur;�g/m�;20110104 15:00;20110104 16:00;5.449;4.564;2.06;2.823;2.663;2.6;
BC;uur;�g/m�;20110104 16:00;20110104 17:00;6.095;4.956;1.924;2.67;2.567;2.856;
BC;uur;�g/m�;20110104 17:00;20110104 18:00;6.184;6.005;2.24;2.907;2.487;2.499;
BC;uur;�g/m�;20110104 18:00;20110104 19:00;4.308;3.195;1.7;2.367;2.078;2.318;
BC;uur;�g/m�;20110104 19:00;20110104 20:00;3.07;2.58;1.688;2.063;2.057;2.34;
BC;uur;�g/m�;20110104 20:00;20110104 21:00;2.813;2.607;1.628;1.988;2.036;2.456;
BC;uur;�g/m�;20110104 21:00;20110104 22:00;2.696;2.902;1.784;1.817;1.864;2.179;
BC;uur;�g/m�;20110104 22:00;20110104 23:00;2.428;3.231;1.789;1.766;1.904;2.168;
BC;uur;�g/m�;20110104 23:00;20110105 00:00;2.496;2.453;1.686;1.623;1.833;1.666;
BC;uur;�g/m�;20110105 00:00;20110105 01:00;1.921;1.95;1.565;1.495;1.758;1.701;
BC;uur;�g/m�;20110105 01:00;20110105 02:00;1.637;1.639;1.336;1.411;1.604;1.56;
BC;uur;�g/m�;20110105 02:00;20110105 03:00;1.387;1.488;1.184;1.237;1.398;1.496;
BC;uur;�g/m�;20110105 03:00;20110105 04:00;1.384;1.27;1.123;1.086;1.226;1.411;
BC;uur;�g/m�;20110105 04:00;20110105 05:00;1.567;1.3;1.061;1.085;1.278;1.422;
BC;uur;�g/m�;20110105 05:00;20110105 06:00;2.223;1.884;1.043;0.972;1.254;1.562;
BC;uur;�g/m�;20110105 06:00;20110105 07:00;5.277;3.635;1.307;1.213;1.426;1.384;
BC;uur;�g/m�;20110105 07:00;20110105 08:00;4.134;3.507;1.515;1.515;1.686;1.519;
BC;uur;�g/m�;20110105 08:00;20110105 09:00;3.152;4.078;1.687;1.677;2.365;1.534;
BC;uur;�g/m�;20110105 09:00;20110105 10:00;3.495;4.38;1.825;2.049;2.585;1.681;
BC;uur;�g/m�;20110105 10:00;20110105 11:00;4.128;4.098;1.966;3.005;2.703;1.914;
BC;uur;�g/m�;20110105 11:00;20110105 12:00;4.581;3.619;2.084;3.071;2.437;1.835;
BC;uur;�g/m�;20110105 12:00;20110105 13:00;3.858;4.174;2.005;2.747;2.405;1.775;
BC;uur;�g/m�;20110105 13:00;20110105 14:00;4.706;4.716;1.881;2.85;2.497;1.652;
BC;uur;�g/m�;20110105 14:00;20110105 15:00;5.134;5.335;1.928;3.29;2.519;1.951;
BC;uur;�g/m�;20110105 15:00;20110105 16:00;5.234;4.588;2.811;4.216;2.297;2.3;
BC;uur;�g/m�;20110105 16:00;20110105 17:00;6.35;9.134;7.196;8.541;2.69;2.256;
BC;uur;�g/m�;20110105 17:00;20110105 18:00;5.987;8.929;6.635;7.047;2.786;2.145;
BC;uur;�g/m�;20110105 18:00;20110105 19:00;3.562;10.722;8.825;9.837;2.235;2.015;
BC;uur;�g/m�;20110105 19:00;20110105 20:00;2.932;9.193;7.746;6.888;2.358;2.389;
BC;uur;�g/m�;20110105 20:00;20110105 21:00;3.09;6.463;2.048;2.615;2.624;1.944;
BC;uur;�g/m�;20110105 21:00;20110105 22:00;2.878;3.907;2.341;2.556;3.177;1.857;
BC;uur;�g/m�;20110105 22:00;20110105 23:00;2.337;3.077;2.11;2.163;1.826;1.791;
BC;uur;�g/m�;20110105 23:00;20110106 00:00;2.16;2.401;1.406;1.406;1.517;1.865;
BC;uur;�g/m�;20110106 00:00;20110106 01:00;1.681;1.721;1.22;1.305;1.396;1.456;
BC;uur;�g/m�;20110106 01:00;20110106 02:00;1.713;1.812;1.163;1.279;1.327;1.374;
BC;uur;�g/m�;20110106 02:00;20110106 03:00;1.706;1.296;1.085;1.241;1.369;1.375;
BC;uur;�g/m�;20110106 03:00;20110106 04:00;1.417;1.189;0.969;1.32;1.263;1.332;
BC;uur;�g/m�;20110106 04:00;20110106 05:00;1.562;1.178;0.88;1.484;1.296;1.385;
BC;uur;�g/m�;20110106 05:00;20110106 06:00;2.868;1.392;0.947;2.046;1.529;1.312;
BC;uur;�g/m�;20110106 06:00;20110106 07:00;8.788;2.072;1.209;1.985;2.108;1.623;
BC;uur;�g/m�;20110106 07:00;20110106 08:00;9.428;3.268;1.526;2.667;2.644;1.62;
BC;uur;�g/m�;20110106 08:00;20110106 09:00;6.318;4.924;1.731;3.451;2.653;1.526;
BC;uur;�g/m�;20110106 09:00;20110106 10:00;6.466;4.855;1.681;3.538;3.218;2.297;
BC;uur;�g/m�;20110106 10:00;20110106 11:00;5.877;4.358;1.776;3.603;3.675;2.517;
BC;uur;�g/m�;20110106 11:00;20110106 12:00;6.824;9.135;2.687;5.151;3.443;2.448;
BC;uur;�g/m�;20110106 12:00;20110106 13:00;8.721;9.405;3.39;5.249;5.013;3.401;
BC;uur;�g/m�;20110106 13:00;20110106 14:00;9.854;8.999;3.859;5.908;7.369;3.205;
BC;uur;�g/m�;20110106 14:00;20110106 15:00;9.83;9.189;3.528;7.065;5.427;3.369;
BC;uur;�g/m�;20110106 15:00;20110106 16:00;10.589;9.898;4.899;10.195;7.331;3.791;
BC;uur;�g/m�;20110106 16:00;20110106 17:00;9.321;7.685;5.555;8.1;8.97;4.069;
BC;uur;�g/m�;20110106 17:00;20110106 18:00;5.427;5.438;4.08;4.27;4.772;3.111;
BC;uur;�g/m�;20110106 18:00;20110106 19:00;3.772;3.832;2.93;3.133;3.648;1.93;
BC;uur;�g/m�;20110106 19:00;20110106 20:00;2.793;3.413;2.352;2.532;2.048;0.352;
BC;uur;�g/m�;20110106 20:00;20110106 21:00;1.375;1.769;0.863;0.963;0.669;0.168;
BC;uur;�g/m�;20110106 21:00;20110106 22:00;3.206;1.809;0.693;1.012;0.66;0.166;
BC;uur;�g/m�;20110106 22:00;20110106 23:00;3.501;3.313;0.73;1.288;0.553;0.319;
BC;uur;�g/m�;20110106 23:00;20110107 00:00;1.575;4.247;1.667;1.351;0.743;0.642;
BC;uur;�g/m�;20110107 00:00;20110107 01:00;1.194;4.213;2.343;1.934;1.24;1.314;
BC;uur;�g/m�;20110107 01:00;20110107 02:00;1.168;3.76;2.114;2.236;1.066;1.348;
BC;uur;�g/m�;20110107 02:00;20110107 03:00;0.84;2.378;1.249;2.471;1.308;1.044;
BC;uur;�g/m�;20110107 03:00;20110107 04:00;1.492;1.417;0.515;1.753;2.927;0.829;
BC;uur;�g/m�;20110107 04:00;20110107 05:00;2.104;2.654;0.661;2.08;3.683;2.268;
BC;uur;�g/m�;20110107 05:00;20110107 06:00;4.717;4.539;0.968;1.658;4.002;2.129;
BC;uur;�g/m�;20110107 06:00;20110107 07:00;10.153;7.39;2.343;2.935;3.725;3.985;
BC;uur;�g/m�;20110107 07:00;20110107 08:00;9.566;6.52;3.142;4.454;3.701;5.415;
BC;uur;�g/m�;20110107 08:00;20110107 09:00;7.157;5.912;2.54;2.798;2.824;3.078;
BC;uur;�g/m�;20110107 09:00;20110107 10:00;5.954;4.719;2.007;2.578;2.002;2.228;
BC;uur;�g/m�;20110107 10:00;20110107 11:00;5.092;4.117;1.572;2.527;1.879;1.462;
BC;uur;�g/m�;20110107 11:00;20110107 12:00;5.295;3.661;1.64;2.496;2.201;1.415;
BC;uur;�g/m�;20110107 12:00;20110107 13:00;5.824;5.578;2.099;2.859;2.483;2.608;
BC;uur;�g/m�;20110107 13:00;20110107 14:00;6.503;7.703;2.553;3.054;2.829;2.752;
BC;uur;�g/m�;20110107 14:00;20110107 15:00;7.721;8.94;3.383;4.475;3.752;4.122;
BC;uur;�g/m�;20110107 15:00;20110107 16:00;8.061;10.332;4.334;5.236;5.009;3.015;
BC;uur;�g/m�;20110107 16:00;20110107 17:00;9.773;11.473;4.604;6.136;5.123;3.511;
BC;uur;�g/m�;20110107 17:00;20110107 18:00;7.062;10.542;4.803;5.513;4.679;2.504;
BC;uur;�g/m�;20110107 18:00;20110107 19:00;4.272;9.043;3.423;3.384;2.474;1.55;
BC;uur;�g/m�;20110107 19:00;20110107 20:00;4.157;7.15;2.72;2.774;2.535;2.145;
BC;uur;�g/m�;20110107 20:00;20110107 21:00;2.686;4.825;1.963;2.12;2.422;2.024;
BC;uur;�g/m�;20110107 21:00;20110107 22:00;2.242;4.133;1.891;2.155;2.169;2.046;
BC;uur;�g/m�;20110107 22:00;20110107 23:00;2.466;3.804;1.851;1.987;1.999;2.214;
BC;uur;�g/m�;20110107 23:00;20110108 00:00;2.031;2.757;1.488;1.653;1.753;1.886;
BC;uur;�g/m�;20110108 00:00;20110108 01:00;1.814;2.018;1.196;1.282;1.42;1.585;
BC;uur;�g/m�;20110108 01:00;20110108 02:00;1.436;1.384;1.105;1.505;1.22;1.367;
BC;uur;�g/m�;20110108 02:00;20110108 03:00;1.372;2.492;1.107;1.347;1.35;0.911;
BC;uur;�g/m�;20110108 03:00;20110108 04:00;1.117;1.725;1.136;1.482;1.308;1.079;
BC;uur;�g/m�;20110108 04:00;20110108 05:00;1.245;1.565;1.093;1.319;1.473;1.306;
BC;uur;�g/m�;20110108 05:00;20110108 06:00;1.424;1.743;0.938;1.099;1.382;1.573;
BC;uur;�g/m�;20110108 06:00;20110108 07:00;1.543;1.424;0.81;0.898;1.126;1.95;
BC;uur;�g/m�;20110108 07:00;20110108 08:00;1.036;1.25;0.634;0.679;0.791;0.944;
BC;uur;�g/m�;20110108 08:00;20110108 09:00;1.063;1.262;0.556;0.605;0.662;0.756;
BC;uur;�g/m�;20110108 09:00;20110108 10:00;1.114;1.488;0.474;0.556;0.589;0.663;
BC;uur;�g/m�;20110108 10:00;20110108 11:00;1.058;1.186;0.394;0.502;0.605;0.591;
BC;uur;�g/m�;20110108 11:00;20110108 12:00;1.216;1.081;0.419;0.532;0.645;0.716;
BC;uur;�g/m�;20110108 12:00;20110108 13:00;1.597;0.864;0.409;0.795;0.764;0.523;
BC;uur;�g/m�;20110108 13:00;20110108 14:00;1.417;0.95;0.426;0.883;0.727;0.33;
BC;uur;�g/m�;20110108 14:00;20110108 15:00;1.745;1.004;0.404;1.16;0.731;0.451;
BC;uur;�g/m�;20110108 15:00;20110108 16:00;1.404;1.016;0.318;1.147;0.584;0.567;
BC;uur;�g/m�;20110108 16:00;20110108 17:00;1.3;0.851;0.33;1.123;0.809;0.67;
BC;uur;�g/m�;20110108 17:00;20110108 18:00;1.688;1.21;0.467;1.613;0.891;0.728;
BC;uur;�g/m�;20110108 18:00;20110108 19:00;1.241;1.069;0.582;1.65;1.001;0.745;
BC;uur;�g/m�;20110108 19:00;20110108 20:00;1.365;4.488;1.332;1.319;0.742;0.935;
BC;uur;�g/m�;20110108 20:00;20110108 21:00;1.424;3.932;1.742;1.192;0.938;;
BC;uur;�g/m�;20110108 21:00;20110108 22:00;1.944;3.168;1.644;1.588;0.884;;
BC;uur;�g/m�;20110108 22:00;20110108 23:00;2.33;4.847;1.887;1.387;0.892;;
BC;uur;�g/m�;20110108 23:00;20110109 00:00;2.111;3.485;1.827;1.959;0.712;;
BC;uur;�g/m�;20110109 00:00;20110109 01:00;1.598;2.156;1.24;1.803;0.844;;
BC;uur;�g/m�;20110109 01:00;20110109 02:00;1.591;1.248;0.97;1.76;2.105;;
BC;uur;�g/m�;20110109 02:00;20110109 03:00;1.87;2.145;1.729;2.783;2.137;;
BC;uur;�g/m�;20110109 03:00;20110109 04:00;1.06;1.215;1.016;1.736;1.283;;
BC;uur;�g/m�;20110109 04:00;20110109 05:00;0.986;1.094;0.783;1.357;1.388;;
BC;uur;�g/m�;20110109 05:00;20110109 06:00;0.751;0.742;0.581;1.323;1.596;;
BC;uur;�g/m�;20110109 06:00;20110109 07:00;1.455;0.687;0.51;1.049;1.083;;
BC;uur;�g/m�;20110109 07:00;20110109 08:00;1.03;0.625;0.506;0.989;1.375;;
BC;uur;�g/m�;20110109 08:00;20110109 09:00;1.113;0.709;0.538;1.284;1.329;;
BC;uur;�g/m�;20110109 09:00;20110109 10:00;1.944;0.642;0.488;1.13;1.198;;
BC;uur;�g/m�;20110109 10:00;20110109 11:00;1.333;0.824;0.574;1.222;1.013;;
BC;uur;�g/m�;20110109 11:00;20110109 12:00;2.144;0.955;0.551;1.117;0.734;;
BC;uur;�g/m�;20110109 12:00;20110109 13:00;1.253;2.02;0.699;1.338;0.367;;
BC;uur;�g/m�;20110109 13:00;20110109 14:00;1.833;1.545;0.605;1.419;0.462;;
BC;uur;�g/m�;20110109 14:00;20110109 15:00;2.129;1.646;0.73;1.755;0.578;;
BC;uur;�g/m�;20110109 15:00;20110109 16:00;1.986;2.069;0.798;1.378;0.477;;
BC;uur;�g/m�;20110109 16:00;20110109 17:00;2.391;2.138;0.883;1.691;0.479;;
BC;uur;�g/m�;20110109 17:00;20110109 18:00;2.528;1.7;0.86;2.425;1.002;;
BC;uur;�g/m�;20110109 18:00;20110109 19:00;2.701;1.813;1.295;2.526;1.415;;
BC;uur;�g/m�;20110109 19:00;20110109 20:00;2.472;1.745;1.223;2.453;1.45;;
BC;uur;�g/m�;20110109 20:00;20110109 21:00;2.455;1.763;1.3;2.339;1.516;;
BC;uur;�g/m�;20110109 21:00;20110109 22:00;2.337;2.577;1.256;2.588;1.818;;
BC;uur;�g/m�;20110109 22:00;20110109 23:00;2.189;2.022;1.194;2.022;1.628;;
BC;uur;�g/m�;20110109 23:00;20110110 00:00;1.752;2.653;1.109;1.882;1.624;;
BC;uur;�g/m�;20110110 00:00;20110110 01:00;2.586;1.711;1.31;1.801;1.915;;
BC;uur;�g/m�;20110110 01:00;20110110 02:00;2.059;1.935;1.457;2.387;2.355;;
BC;uur;�g/m�;20110110 02:00;20110110 03:00;2.781;1.896;1.533;2.382;2.372;;
BC;uur;�g/m�;20110110 03:00;20110110 04:00;2.601;2.264;1.625;2.402;2.402;;
BC;uur;�g/m�;20110110 04:00;20110110 05:00;3.06;3.011;1.748;2.558;2.594;;
BC;uur;�g/m�;20110110 05:00;20110110 06:00;6.423;4.997;2.175;2.412;2.453;;
BC;uur;�g/m�;20110110 06:00;20110110 07:00;10.33;8.733;3.109;2.77;3.437;;
BC;uur;�g/m�;20110110 07:00;20110110 08:00;10.327;9.342;4.046;4.489;4.769;;
BC;uur;�g/m�;20110110 08:00;20110110 09:00;7.777;10.442;4.38;4.836;5.304;;
BC;uur;�g/m�;20110110 09:00;20110110 10:00;6.814;10.237;4.057;4.28;4.729;;
BC;uur;�g/m�;20110110 10:00;20110110 11:00;6.036;7.24;3.594;4.599;5.324;;
BC;uur;�g/m�;20110110 11:00;20110110 12:00;5.964;8.197;3.647;4.006;4.135;;
BC;uur;�g/m�;20110110 12:00;20110110 13:00;5.947;7.063;3.293;4.275;3.712;;
BC;uur;�g/m�;20110110 13:00;20110110 14:00;6.917;7.571;3.373;4.74;4.479;2.248;
BC;uur;�g/m�;20110110 14:00;20110110 15:00;7.725;7.019;3.375;5.185;4.892;2.372;
BC;uur;�g/m�;20110110 15:00;20110110 16:00;7.992;6.657;3.664;4.712;4.744;2.81;
BC;uur;�g/m�;20110110 16:00;20110110 17:00;8.447;10.098;3.807;5.173;4.033;2.241;
BC;uur;�g/m�;20110110 17:00;20110110 18:00;8.498;9.454;2.944;4.533;3.823;1.959;
BC;uur;�g/m�;20110110 18:00;20110110 19:00;6.508;6.67;2.715;4.133;3.161;1.957;
BC;uur;�g/m�;20110110 19:00;20110110 20:00;3.374;5.027;2.237;2.849;2.78;2.144;
BC;uur;�g/m�;20110110 20:00;20110110 21:00;2.849;3.446;2.035;2.517;2.19;2.713;
BC;uur;�g/m�;20110110 21:00;20110110 22:00;2.499;2.751;1.726;2.137;2.088;2.766;
BC;uur;�g/m�;20110110 22:00;20110110 23:00;2.083;2.943;1.509;1.755;1.839;3.162;
BC;uur;�g/m�;20110110 23:00;20110111 00:00;1.839;2.022;1.071;1.304;1.35;2.118;
BC;uur;�g/m�;20110111 00:00;20110111 01:00;1.237;1.765;0.988;1.138;1.108;1.463;
BC;uur;�g/m�;20110111 01:00;20110111 02:00;1.024;1.223;0.843;0.975;0.84;1.198;
BC;uur;�g/m�;20110111 02:00;20110111 03:00;0.743;0.992;0.842;0.897;1.049;0.837;
BC;uur;�g/m�;20110111 03:00;20110111 04:00;0.931;1.073;0.957;0.951;1.194;0.749;
BC;uur;�g/m�;20110111 04:00;20110111 05:00;1.025;1.137;0.894;0.943;1.155;0.961;
BC;uur;�g/m�;20110111 05:00;20110111 06:00;1.751;1.711;0.822;0.849;1.02;0.806;
BC;uur;�g/m�;20110111 06:00;20110111 07:00;4.725;3.167;1.091;1.156;1.27;0.862;
BC;uur;�g/m�;20110111 07:00;20110111 08:00;4.262;3.767;1.081;1.373;1.432;1.023;
BC;uur;�g/m�;20110111 08:00;20110111 09:00;3.887;4.894;1.239;1.715;1.614;1.279;
BC;uur;�g/m�;20110111 09:00;20110111 10:00;3.226;3.536;1.119;1.873;1.319;1.167;
BC;uur;�g/m�;20110111 10:00;20110111 11:00;4.21;3.519;1.24;2.133;1.492;1.367;
BC;uur;�g/m�;20110111 11:00;20110111 12:00;4.188;4.006;1.324;2.106;1.936;1.364;
BC;uur;�g/m�;20110111 12:00;20110111 13:00;3.997;4.599;1.554;2.261;2.053;1.161;
BC;uur;�g/m�;20110111 13:00;20110111 14:00;5.266;2.943;1.444;2.913;1.85;1.544;
BC;uur;�g/m�;20110111 14:00;20110111 15:00;6.123;6.036;2.569;3.295;1.664;1.259;
BC;uur;�g/m�;20110111 15:00;20110111 16:00;6.104;5.288;1.706;2.987;1.008;1.32;
BC;uur;�g/m�;20110111 16:00;20110111 17:00;8.255;6.765;2.359;3.603;1.375;1.306;
BC;uur;�g/m�;20110111 17:00;20110111 18:00;5.776;6.646;2.73;3.002;1.546;0.958;
BC;uur;�g/m�;20110111 18:00;20110111 19:00;1.19;5.488;1.203;1.794;0.948;0.488;
BC;uur;�g/m�;20110111 19:00;20110111 20:00;1.607;3.24;0.667;0.964;0.571;0.425;
BC;uur;�g/m�;20110111 20:00;20110111 21:00;1.65;2.014;0.402;0.52;0.332;0.157;
BC;uur;�g/m�;20110111 21:00;20110111 22:00;2.358;1.045;0.345;0.314;0.177;0.049;
BC;uur;�g/m�;20110111 22:00;20110111 23:00;2.351;0.763;0.5;0.283;0.179;0.137;
BC;uur;�g/m�;20110111 23:00;20110112 00:00;2.284;0.691;0.386;0.268;0.145;0.077;
BC;uur;�g/m�;20110112 00:00;20110112 01:00;2.656;0.559;0.274;0.195;0.091;0.123;
BC;uur;�g/m�;20110112 01:00;20110112 02:00;3.096;0.504;0.296;0.331;0.106;0.176;
BC;uur;�g/m�;20110112 02:00;20110112 03:00;2.171;1.79;0.611;0.412;0.118;0.327;
BC;uur;�g/m�;20110112 03:00;20110112 04:00;0.767;1.931;1.012;0.696;0.307;0.377;
BC;uur;�g/m�;20110112 04:00;20110112 05:00;1.085;1.248;0.98;1.193;0.346;0.954;
BC;uur;�g/m�;20110112 05:00;20110112 06:00;3.358;1.415;0.664;1.853;1.443;2.53;
BC;uur;�g/m�;20110112 06:00;20110112 07:00;9.503;5.136;0.889;1.711;2.542;1.387;
BC;uur;�g/m�;20110112 07:00;20110112 08:00;7.496;5.714;1.646;1.793;2.047;1.14;
BC;uur;�g/m�;20110112 08:00;20110112 09:00;4.926;5.413;1.897;2.444;2.488;3.035;
BC;uur;�g/m�;20110112 09:00;20110112 10:00;4.189;6.078;2.228;2.749;2.329;1.599;
BC;uur;�g/m�;20110112 10:00;20110112 11:00;3.474;3.978;1.594;2.013;2.104;1.492;
BC;uur;�g/m�;20110112 11:00;20110112 12:00;3.721;4.253;1.556;1.899;1.619;1.835;
BC;uur;�g/m�;20110112 12:00;20110112 13:00;3.233;3.964;1.238;1.422;1.532;1.12;
BC;uur;�g/m�;20110112 13:00;20110112 14:00;3.686;3.999;0.977;1.366;1.348;0.985;
BC;uur;�g/m�;20110112 14:00;20110112 15:00;3.882;2.377;;2.17;1.289;0.973;
BC;uur;�g/m�;20110112 15:00;20110112 16:00;6.413;2.639;1.217;3.419;1.728;0.883;
BC;uur;�g/m�;20110112 16:00;20110112 17:00;7.103;3.162;1.441;3.689;2.281;1.003;